Probability
9 7 3 0 0 0 0 0 0 0 0 0 0 0 0 0 0 0 2 7 10 11 11 12 12 11 8 5 3 3 3 3 3 3 1 0 1 1 1 0 0 0 0
9 7 3 0 0 0 0 0 0 0 0 0 0 0 0 0 0 0 1 5 9 10 11 11 12 11 9 6 4 4 4 4 3 2 1 0 0 0 0 0 0 0 0
7 5 2 0 0 0 0 0 0 0 0 0 0 0 0 0 1 1 2 4 6 8 10 12 12 12 10 9 7 6 6 5 3 1 1 0 0 0 0 0 0 0 0
6 4 1 0 0 0 0 0 0 0 0 0 0 0 1 1 3 3 4 5 7 8 10 13 13 13 12 11 10 9 8 7 4 2 1 0 0 0 0 0 0 0 0
7 5 3 2 1 1 1 0 0 0 1 1 0 1 2 3 4 4 4 5 8 11 13 14 15 15 13 12 11 10 9 8 6 4 3 2 1 0 0 0 0 0 0
6 5 4 3 2 1 1 0 0 0 1 1 1 1 2 4 4 6 6 5 8 12 14 17 17 15 13 12 11 10 10 9 7 6 5 5 3 2 1 0 0 0 0
6 5 5 5 3 2 1 0 0 0 1 1 2 2 2 2 4 6 7 6 7 10 13 17 18 16 13 11 10 11 11 9 8 7 7 7 6 5 3 1 1 0 0
7 6 7 7 7 5 4 3 2 1 1 1 1 2 2 2 3 3 4 6 7 8 10 13 18 18 15 13 11 11 11 11 9 8 7 7 7 6 5 4 2 1 0
10 8 8 9 9 9 9 8 6 4 3 2 2 2 1 2 3 2 2 4 7 8 7 9 15 19 19 18 16 13 11 10 10 8 8 7 7 6 6 6 4 1 0
13 12 10 9 9 9 10 10 9 7 4 3 3 3 3 4 5 4 2 3 5 8 9 9 12 17 20 22 21 18 12 9 8 8 8 7 5 4 4 5 4 2 0
18 17 15 13 11 9 8 10 11 10 6 4 5 6 6 7 8 7 5 3 3 5 9 10 10 13 17 21 22 19 14 9 8 8 7 6 4 4 4 5 5 3 1
22 21 21 21 19 13 11 12 14 13 11 9 10 10 10 11 11 11 8 6 3 3 7 11 14 13 13 16 18 17 13 10 8 6 4 4 4 5 6 6 6 4 3
23 24 27 29 25 18 15 16 18 17 16 15 15 15 16 15 15 15 13 11 8 5 7 13 18 15 12 14 16 14 11 7 4 3 2 2 4 5 6 6 6 5 4
20 26 33 33 27 20 17 19 21 19 19 19 18 20 22 20 19 19 17 17 14 11 10 13 17 16 14 15 15 14 11 6 2 1 0 1 1 2 3 5 5 5 4
23 30 36 34 27 21 20 21 23 22 22 23 22 24 25 24 23 23 22 21 20 16 12 12 15 16 16 16 14 16 16 8 1 0 0 0 0 0 1 2 3 4 4
34 37 39 37 31 27 26 26 27 27 28 29 28 27 27 26 26 26 23 23 23 19 14 14 17 17 16 15 16 21 22 13 4 0 0 0 0 0 0 0 1 2 2
43 43 44 42 37 35 35 36 35 34 36 36 33 29 27 27 26 24 22 22 24 23 18 16 18 19 19 19 21 25 25 18 9 3 1 0 0 0 0 0 0 1 1
48 48 48 47 42 40 43 45 41 39 40 40 37 34 31 29 28 25 22 22 24 25 23 20 18 21 24 24 25 26 25 21 16 6 1 0 0 0 0 0 0 0 0
52 51 51 50 46 44 46 47 45 42 42 41 40 38 34 32 33 30 26 25 25 25 25 21 19 21 24 25 26 26 24 22 18 8 2 1 0 0 0 0 0 0 0
53 53 53 52 49 46 44 45 45 44 43 42 42 39 34 32 33 32 29 27 26 25 22 19 18 19 22 25 27 25 24 23 19 12 6 4 3 1 0 0 0 0 0
51 51 52 52 49 43 38 39 42 42 43 43 43 40 34 30 30 28 24 22 23 23 21 18 17 16 19 23 24 23 21 20 19 15 12 10 8 6 4 2 1 0 0
49 48 48 47 43 36 30 29 34 38 41 43 43 40 33 28 26 22 15 12 14 17 18 19 18 16 16 17 18 18 18 16 16 16 15 14 12 11 10 7 3 0 0
46 44 42 40 37 32 24 19 23 33 41 43 41 37 30 25 24 21 14 10 11 12 14 18 20 18 16 16 16 15 16 16 15 14 14 14 14 13 11 8 4 1 0
44 41 37 36 35 31 23 14 16 28 39 42 39 33 27 23 22 22 20 17 16 15 14 15 18 18 16 15 14 14 15 15 15 13 12 12 13 13 10 8 5 2 0
43 39 36 35 35 31 21 11 13 25 35 37 34 28 22 20 19 19 22 23 20 18 14 12 12 12 10 8 8 9 11 12 12 11 11 12 13 14 11 8 5 3 1
43 39 36 36 36 31 19 9 11 23 31 32 30 25 19 17 15 15 21 23 19 16 14 11 8 6 5 4 4 5 7 8 9 9 11 12 13 14 12 8 6 4 3
Wind_Speed
5 5 3 3 4 4 5 4 3 3 3 3 3 3 2 1 1 3 4 12 12 11 11 11 11 10 10 10 10 10 10 10 9 9 9 9 9 9 9 9 9 9 8
4 4 4 3 3 3 3 3 3 3 3 2 2 2 2 1 1 3 4 6 11 12 12 12 12 11 11 11 11 11 11 11 10 10 10 10 10 10 10 10 10 9 9
5 4 4 4 3 3 4 3 3 3 3 3 3 3 2 2 2 3 4 4 6 10 12 12 12 12 12 12 12 12 11 11 11 11 11 11 11 11 10 10 10 10 9
5 4 3 4 4 4 4 4 3 3 2 2 2 2 2 2 3 4 4 5 4 5 9 13 12 12 12 13 12 12 12 12 11 12 11 11 11 11 10 10 11 11 10
5 4 3 3 4 3 3 4 4 3 2 2 2 2 2 3 3 5 4 5 5 5 5 9 13 13 13 13 13 12 12 12 12 12 12 12 12 11 11 11 11 11 11
5 4 3 4 4 3 3 3 3 2 2 3 4 2 2 3 3 3 3 3 4 5 6 6 7 9 13 12 12 12 12 12 12 12 13 13 13 13 12 12 12 12 12
5 3 2 4 3 3 3 3 2 3 3 2 2 1 2 3 4 3 3 3 4 4 4 6 5 5 6 12 12 12 12 12 11 11 12 13 13 13 12 12 12 12 12
5 5 4 4 4 3 4 3 3 3 3 2 2 1 1 2 2 4 4 4 4 3 4 6 6 5 4 4 7 12 12 11 11 11 11 11 12 12 11 12 12 12 12
5 3 5 4 3 4 3 4 4 4 3 2 2 2 1 2 1 1 3 3 3 3 3 3 5 5 6 4 5 10 12 11 11 11 11 10 10 11 11 11 12 12 12
6 6 5 5 4 3 4 5 5 3 3 3 2 2 2 1 1 1 2 1 3 3 3 3 3 3 4 4 4 7 11 11 10 10 10 10 10 10 10 11 12 12 12
6 6 6 6 5 4 5 5 3 4 3 3 2 2 2 2 3 2 2 2 2 2 3 3 3 3 4 4 3 5 9 9 9 8 8 9 9 10 10 10 11 12 12
5 7 7 6 6 5 5 5 4 5 3 3 2 2 2 2 2 2 2 2 2 2 3 3 3 3 3 3 4 6 8 8 8 7 7 7 7 9 9 10 11 11 11
4 6 6 5 5 5 5 5 5 5 4 4 3 3 2 2 2 2 2 2 2 2 2 2 2 2 2 2 3 7 7 8 8 7 7 7 7 7 7 7 8 9 9
4 5 6 5 5 5 5 4 4 5 4 5 6 4 3 3 2 2 3 2 2 2 2 3 1 1 1 2 4 7 5 8 8 7 7 6 7 7 6 6 6 7 7
4 5 5 6 5 5 4 4 4 4 4 5 5 4 4 3 3 3 2 2 3 3 3 3 2 2 2 2 4 4 4 7 8 8 7 7 7 6 6 7 6 6 6
3 4 5 5 5 5 5 4 4 4 4 4 4 4 4 3 3 2 3 3 3 3 3 2 2 2 2 2 4 3 4 7 8 8 8 8 7 7 7 7 6 6 6
3 3 4 4 4 5 5 4 5 4 4 4 4 4 4 4 3 3 3 3 3 3 3 3 2 2 2 2 2 3 3 4 5 9 9 9 8 7 7 7 6 6 6
3 3 3 4 4 5 4 5 5 5 5 5 4 3 4 4 4 3 3 4 3 3 3 4 3 2 3 3 3 4 3 4 3 7 9 9 9 8 8 7 7 7 7
3 3 3 3 4 4 4 4 4 4 3 3 3 3 3 3 3 3 3 4 3 4 3 3 4 2 2 2 2 3 3 1 3 4 7 8 8 8 8 8 7 7 7
4 3 3 4 3 3 3 2 2 3 3 3 3 3 2 3 3 4 4 4 4 3 3 3 3 3 2 2 2 2 2 2 3 3 3 4 6 8 7 8 8 8 7
5 4 4 4 3 3 2 2 3 4 3 3 3 2 3 3 3 3 3 2 3 3 3 3 3 3 2 1 2 2 3 2 2 2 2 3 3 4 5 7 7 8 8
4 4 3 3 3 3 2 2 3 3 3 3 3 3 4 4 4 5 5 4 4 4 4 3 3 3 3 3 2 2 2 2 2 2 2 3 3 3 3 4 6 8 9
2 2 2 2 2 1 1 1 2 2 2 3 3 3 3 3 2 2 3 4 4 5 5 4 4 4 4 3 3 3 2 2 3 2 1 3 3 3 3 5 9 10 10
2 2 2 2 2 2 2 2 2 3 3 3 3 3 3 2 2 2 3 3 3 3 4 4 4 4 3 2 3 3 3 2 3 2 2 3 3 3 2 2 8 10 9
3 3 3 2 2 2 3 3 2 2 2 3 3 3 2 2 2 2 3 3 3 3 4 3 3 4 3 3 3 2 2 2 3 3 2 3 2 2 2 2 4 8 9
3 3 2 3 3 3 4 5 4 2 3 2 2 2 1 1 1 1 2 3 3 3 3 3 2 3 3 3 4 4 3 3 3 3 2 2 2 1 2 1 2 3 4
Wind_Direction
150 152 158 158 170 167 166 170 179 185 190 200 206 206 219 229 140 134 149 169 174 181 189 195 200 202 205 204 204 204 204 207 210 210 212 211 210 211 211 214 217 218 220
141 147 150 158 170 166 158 162 175 183 193 198 206 214 214 225 166 148 159 178 185 190 195 199 202 205 208 209 210 209 210 212 214 215 217 217 215 216 219 220 222 223 225
143 154 156 165 173 165 156 165 183 194 189 188 199 211 211 214 211 178 169 184 191 197 200 203 205 207 211 213 215 215 215 216 217 218 220 220 219 219 221 223 225 226 225
153 157 166 171 169 172 169 172 182 180 184 189 205 219 209 208 211 204 194 194 189 193 201 207 208 211 214 217 219 219 218 218 218 219 220 220 221 221 223 225 226 225 225
158 164 176 163 169 173 172 183 170 171 179 194 217 215 213 214 208 219 207 202 193 186 185 199 205 210 215 218 219 221 221 221 222 222 222 223 224 225 225 227 226 226 225
167 174 169 168 176 175 181 178 157 162 190 209 228 226 224 224 209 220 212 209 201 194 189 185 193 210 215 218 221 222 224 226 227 227 226 226 227 226 225 227 228 227 226
173 179 174 158 174 180 180 172 164 183 204 217 216 252 258 231 207 203 215 218 211 202 188 178 184 192 201 214 220 222 226 229 230 231 229 229 228 227 226 227 227 227 227
177 180 182 177 173 178 180 182 183 200 217 208 196 212 257 273 244 217 199 208 213 204 201 197 190 188 193 191 207 216 222 229 231 233 232 228 227 227 225 227 227 227 228
184 180 175 182 178 183 180 188 197 203 210 226 218 189 197 229 264 265 223 204 199 207 213 213 197 193 200 189 189 209 217 221 227 231 232 230 228 224 224 228 227 225 225
185 187 184 181 191 193 187 201 196 198 204 222 235 225 221 211 201 284 286 255 215 210 211 230 222 196 191 183 191 194 205 213 221 227 228 228 226 223 222 226 227 225 224
190 191 184 185 194 195 196 208 192 209 213 220 224 222 228 217 216 215 249 266 268 239 210 207 224 212 192 182 184 185 187 199 208 215 221 223 224 221 222 224 226 226 226
193 194 189 189 194 198 200 201 198 213 219 230 245 242 228 224 236 228 228 240 248 258 240 210 208 210 201 178 186 166 182 186 194 201 207 212 217 218 221 224 226 229 230
192 191 193 187 198 202 203 203 203 214 214 220 233 246 244 239 234 222 225 243 262 272 266 242 215 203 203 156 160 165 182 183 187 195 202 206 210 211 215 219 222 224 226
197 184 182 182 193 200 209 202 209 217 211 217 230 230 241 247 243 232 222 216 245 264 256 250 214 189 189 163 170 173 176 182 185 191 199 204 207 209 211 212 215 219 220
209 184 178 185 196 202 210 204 219 223 213 216 228 229 234 244 248 247 237 219 214 242 258 253 238 204 192 172 167 182 174 182 186 191 197 202 207 210 212 211 213 214 213
210 180 182 187 196 201 206 210 219 225 221 226 227 231 237 245 250 248 245 238 222 221 246 250 240 222 214 212 182 189 178 175 190 195 197 199 202 207 211 212 212 208 204
203 190 192 193 201 204 202 208 221 220 219 226 230 228 230 239 251 256 254 252 243 227 240 259 255 225 218 220 193 207 191 185 197 202 200 199 199 202 205 206 204 201 197
204 191 191 201 214 214 205 210 221 221 221 222 224 229 236 241 245 257 262 261 253 233 227 244 251 235 219 210 202 217 218 207 205 199 199 199 199 201 200 199 199 200 198
201 199 193 207 220 225 215 212 214 225 224 219 216 224 238 244 247 253 252 260 263 257 235 235 245 243 229 220 202 223 230 231 242 201 197 203 202 200 199 199 199 198 197
201 203 205 206 213 222 221 216 214 226 229 225 220 221 239 245 244 245 244 252 261 268 261 255 252 252 239 222 192 208 230 228 245 229 201 204 200 197 196 199 198 196 195
207 207 213 211 202 204 216 223 226 226 227 229 222 209 225 232 228 236 248 246 254 261 257 251 246 253 249 220 217 223 232 232 240 219 203 210 195 198 203 206 202 199 198
205 205 206 205 214 217 190 204 222 229 231 230 231 223 228 228 225 219 231 239 239 240 252 252 242 235 235 222 223 241 243 241 249 224 207 234 205 206 206 203 197 195 198
193 199 197 200 198 200 206 199 227 224 231 237 238 244 249 254 245 241 230 228 241 243 235 243 248 243 240 225 217 234 240 249 254 249 232 250 224 219 213 204 193 196 197
179 195 207 190 188 207 191 192 236 237 240 237 235 232 232 251 273 277 269 249 246 254 248 237 245 249 242 225 220 230 237 243 254 254 222 252 244 235 238 210 198 195 195
187 198 193 198 201 181 175 175 191 243 234 242 245 247 236 228 262 271 266 262 263 273 289 284 261 248 231 219 215 234 244 246 263 259 222 239 256 253 240 230 202 194 196
204 207 190 197 193 187 179 181 196 238 239 238 230 218 199 212 247 287 263 265 264 269 282 286 276 261 233 222 212 216 233 245 260 271 241 235 261 263 266 230 184 189 197